Location: Salamanca
(40.9670°N, 5.6500°W)
Time: 13:17:36
(UTC+02:00)

ISS - Visible Passes

Search period start: 29 May 2017 00:00
Search period end: 08 June 2017 00:00
Orbit: 402 x 408 km, 51.6° (Epoch: 29 May)

Date Brightness Start Highest point End Pass type
(mag) Time Alt. Az. Time Alt. Az. Time Alt. Az.
29 May -0.5 00:49:56 10° NNW 00:51:32 13° N 00:53:08 10° NNE visible
29 May -1.2 02:26:23 10° NNW 02:28:37 21° N 02:28:37 21° N visible
29 May -1.7 22:18:55 10° W 22:21:54 30° NNW 22:24:53 10° NE visible
29 May -0.6 23:57:25 10° NW 23:59:11 14° N 00:00:56 10° NNE visible
30 May -1.0 01:34:30 10° NNW 01:36:42 16° NNE 01:37:45 14° NE visible
30 May -0.8 23:04:45 10° NW 23:06:50 16° NNW 23:08:56 10° NNE visible
31 May -0.7 00:42:32 10° NNW 00:44:22 14° N 00:46:12 10° NE visible
31 May -1.1 02:18:33 10° NW 02:19:44 19° NNW 02:19:44 19° NNW visible
31 May -0.7 23:50:22 10° NNW 23:51:59 13° N 23:53:37 10° NNE visible
01 Jun -1.5 01:26:39 10° NW 01:29:09 23° NNE 01:29:09 23° NNE visible
01 Jun -0.8 22:57:55 10° NW 22:59:36 13° N 23:01:16 10° NNE visible
02 Jun -1.2 00:34:44 10° NNW 00:37:05 18° NNE 00:38:38 14° NE visible
02 Jun -0.9 02:10:45 10° NW 02:11:16 14° NW 02:11:16 14° NW visible
02 Jun -0.9 23:42:46 10° NNW 23:44:44 15° N 23:46:42 10° NE visible
03 Jun -1.9 01:18:45 10° NW 01:20:48 30° NNW 01:20:48 30° NNW visible
03 Jun -0.9 22:50:39 10° NNW 22:52:20 13° N 22:54:01 10° NE visible
04 Jun -2.0 00:26:48 10° NW 00:29:40 27° NNE 00:30:21 25° NE visible
04 Jun -1.4 23:34:52 10° NNW 23:37:21 20° NNE 23:39:52 10° ENE visible
05 Jun -1.9 01:10:55 10° NW 01:12:34 27° NW 01:12:34 27° NW visible
05 Jun -1.1 22:42:53 10° NNW 22:45:00 16° NNE 22:47:05 10° NE visible
06 Jun -3.2 00:18:51 10° NW 00:22:04 50° NNE 00:22:11 50° NE visible
06 Jun -2.3 23:26:50 10° NW 23:29:50 31° NNE 23:31:49 17° E visible
07 Jun -1.5 01:03:18 10° WNW 01:04:28 19° W 01:04:28 19° W visible
07 Jun -1.7 22:34:52 10° NNW 22:37:31 22° NNE 22:40:09 10° ENE visible
